{"data":{"norad_id":52686,"intl_designator":"2022-053AG","name":"STARLINK-4005","alt_names":[],"object_type":"PAYLOAD","status":"ACTIVE","operator":null,"country":"US","launch_date":"2022-05-18","launch_site_code":"AFETR","launch_vehicle":null,"mission":null,"orbit_class":"UNKNOWN","rcs_meters":null,"size_class":null,"mass_kg":null,"dimensions":null,"purposes":["comms"],"wikipedia_slug":null,"has_3d_model":false,"image_url":null,"decayed_at":null,"tle_current":{"epoch":"2026-09-20T04:00:03.000096Z","epoch_age_seconds":95283,"freshness":"FRESH","line1":"1 52686U 22053AG  26263.16670139  .00088377  00000+0  30962-2 0  9995","line2":"2 52686  53.1599 348.7027 0001363 101.9632 127.9896 15.28744201  5839","mean_motion":15.28744201,"eccentricity":0.0001363,"inclination_deg":53.1599,"raan_deg":348.7027,"arg_perigee_deg":101.9632,"mean_anomaly_deg":127.9896,"bstar":0.0030962,"rev_number":583,"period_min":94.194960743468,"perigee_km":478.63056709322,"apogee_km":480.49997673255,"semimajor_km":6857.7022719129,"source":"CELESTRAK","updated_at":"2026-09-20T09:00:40.106074Z"}}}